Meteor 2-3 Rocket - Orbit

View from above orbital plane
View from above orbital plane
View from above satellite
View from above satellite

Ground track
Ground track

The orbit data is extracted from the following two-line orbital elements,

1 10515U 77117B   13145.50723797  .00000199  00000-0  10816-3 0  6051
2 10515 081.2375 278.5018 0031177 108.8687 008.3107 14.08460397820931
Epoch (UTC): 25 May 2013 12:10:25
Eccentricity: 0.0031177
inclination: 81.2375°
perigee height: 842 km
apogee height: 887 km
right ascension of ascending node: 278.5018°
argument of perigee: 108.8687°
revolutions per day: 14.08460397
mean anomaly at epoch: 8.3107°
orbit number at epoch: 82093

The dashed part of the orbit path shows where the satellite is in the earth's shadow,  

Developed and maintained by Chris Peat, Heavens-Above GmbH. Please read the updated FAQ before sending e-mail. Imprint. DLR